www.pogodaiklimat.ru

Погода и климат >> Архив погоды >> Россия >> Оренбургская область >> Троицкое Т


ПОГОДА в Троицком Т

  • Прогноз погоды в Троицком Т
  • Монитор погоды в Троицком Т

АРХИВ ПОГОДЫ в Троицком Т

Время (UTC), дата Ветер
(напр.,м/с)
 
Видим.   Явления Облачность Т
(С)
Тd
(С)
f
(%)
Тe
(С)
Тes
(С)
Комфортность P
(гПа)
Po
(гПа)
Тmin
(С)
Tmax
(С)
R
(мм)
R24
(мм)
S
(см)
18 14.07 С 2 10 км {ливн. осадки} 9/9 660 м
[Cb cap]
+20.7 +18.6 88 +25 +25 комфорт 1003.7 977.6
21 14.07 С 4
{10}
10 км 9/9 630 м
[Cb cap]
+20.6 +19.3 92 +25 +25 комфорт 998.6 972.6
00 15.07 С 7-12
{13}
20 км зарница {ливн. осадки} 10/10 600 м
[Cb cap]
+20.6 +19.1 91 +24 +24 комфорт 994.6 968.7
03 15.07 З 1
{13}
20 км {гроза, ливн. осадки} 9/3 600 м
[Cb cap Ci]
+23.6 +16.5 64 +27 +29 жарко 992.3 966.7 +19.8 0.4
06 15.07 ЮЗ 3 20 км {гроза, ливн. осадки} 10/10 630 м
[Cb cap]
+18.9 +16.6 87 +20 +20 997.2 971.0 +18.9
09 15.07 ЮЗ 3 20 км в посл. час ливневой дождь 10/10 600 м
[Cb cap]
+16.7 +14.9 89 +16 +16 1001.5 975.0
12 15.07 З 3
{10}
20 км в посл. час ливневой дождь 9/9 630 м
[Cb cap]
+18.6 +14.3 76 +20 +20 1003.7 977.3
15 15.07 З 3
{11}
20 км 9/9 660 м
[Cb cap]
+17.6 +12.0 70 +18 +18 1006.3 979.7 +24.0 0.6
18 15.07 З 2 10 км 1/1 600 м
[Cb cap]
+14.8 +11.1 78 +15 +15 1008.7 981.8
21 15.07 З 1 10 км ясно +11.0 +9.9 93 +11 +11 1009.5 982.3
00 16.07 З 1 20 км ясно +8.7 +7.9 95 +8 +8 1010.8 983.3
03 16.07 З 2 20 км 3/0
[Ci]
+15.4 +13.2 87 +15 +19 1011.4 984.5 +8.2
06 16.07 СЗ 5 20 км 3/3 600 м
[Cu med, cong]
+21.9 +12.2 54 +24 +29 комфорт 1011.4 985.1
09 16.07 СЗ 4 20 км 8/8 800 м
[Cu med, cong]
+24.6 +11.1 43 +26 +28 жарко 1011.8 985.7
12 16.07 СЗ 3 20 км 9/3 600 м
[Cb cap Ci ing]
+25.8 +9.8 36 +26 +30 жарко 1011.3 985.3
15 16.07 СЗ 2 20 км 9/3 600 м
[Cb cap Ci sp]
+23.1 +12.4 51 +26 +26 жарко 1012.0 985.8 +26.4
18 16.07 С 1 10 км 6/0
[Ac lent Ci]
+15.2 +12.8 86 +16 +16 1013.5 986.6
21 16.07 С 1 10 км 9/0
[Ac lent Cc]
+11.7 +10.4 92 +11 +11 1014.3 987.0
00 17.07 СЗ 1 н/о н/о +12.9 +11.6 92 +13 +13 1014.7 987.5
03 17.07 СВ 1 20 км 9/6 660 м
[Cb cap Ac und]
+17.7 +13.1 74 +19 +20 1014.2 987.4 +11.4
06 17.07 СВ 1 20 км 8/0
[Ac und Ci sp]
+24.6 +12.5 47 +26 +36 жарко 1013.0 986.8
09 17.07 Ю 1 20 км 5/1 600 м
[Cb cap Cc]
+29.7 +10.0 29 +30 +45 жарко 1011.5 985.8
12 17.07 СЗ 4 20 км 9/5 600 м
[Cb cap Ac lent]
+25.4 +12.7 45 +27 +28 жарко 1011.7 985.7
15 17.07 СЗ 3 10 км слаб. ливневой дождь 10/6 600 м
[Cb cap Ac lent]
+18.1 +16.9 93 +18 +18 1013.5 986.9 +29.7 2
18 17.07 С 2 10 км {ливн. осадки} 9/5 600 м
[Cb cap Ac lent]
+17.8 +16.2 90 +18 +18 1011.5 984.9
21 17.07 С 1 10 км 5/0
[Ac cuf]
+16.1 +14.8 92 +17 +17 1010.8 984.0
00 18.07 С 1 20 км 9/4 600 м
[Sc Ac cast Cc]
+16.1 +13.8 86 +17 +17 1010.1 983.3
03 18.07 С 1 20 км 8/4 600 м
[Sc Cc]
+19.6 +14.8 74 +23 +25 комфорт 1009.0 982.6 +15.6 1
06 18.07 Ю 2 20 км 6/3 600 м
[Cu med, cong Ac trans]
+29.5 +11.3 32 +30 +37 жарко 1007.2 981.6
09 18.07 ЮВ 3 20 км 9/5 600 м
[Cb cap Ac trans Ci]
+30.9 +10.3 28 +31 +35 жарко 1006.1 980.7
12 18.07 штиль 0 20 км в посл. час ливневой дождь 9/8 630 м
[Cb cap Ac lent]
+23.9 +15.8 60 +27 +28 жарко 1007.4 981.4
15 18.07 ЮВ 2 20 км {гроза, ливн. осадки} 8/4 600 м
[Cb cap Ac lent Ci sp]
+27.0 +13.6 44 +29 +29 жарко 1005.3 979.6 +33.3 0.5
18 18.07 СЗ 2 10 км {гроза, ливн. осадки} 8/6 660 м
[Cb cap Ci sp]
+20.1 +15.7 76 +23 +23 комфорт 1006.3 980.0
21 18.07 З 2 10 км 5/0
[Ac cast]
+17.7 +15.2 85 +18 +18 1007.2 980.7
00 19.07 С 1 20 км 3/0
[Ac cast]
+15.1 +14.0 93 +16 +16 1008.5 981.7
03 19.07 СЗ 1 20 км 3/3 600 м
[Cb cap Cc]
+20.2 +15.9 76 +24 +27 комфорт 1009.0 982.6 +14.9
06 19.07 В 1 20 км 9/5 600 м
[Cb cap Ac As Ci sp]
+27.8 +16.5 50 +31 +36 душно 1007.7 982.0
09 19.07 ЮВ 3 20 км 9/8 600 м
[Cb cap Ac trans]
+32.2 +13.1 31 +33 +35 жарко 1006.8 981.5
12 19.07 СЗ 1 20 км в посл. час ливневой дождь 10/5 600 м
[Cb cap Ac lent]
+27.9 +20.1 63 +34 +35 очень
душно
1007.5 981.9
15 19.07 С 2 20 км 9/8 700 м
[Cb cap Cc]
+26.7 +15.7 51 +30 +30 душно 1006.5 980.7 +32.6 0.0
18 19.07 В 1 10 км в посл. час ливневой дождь 9/8 660 м
[Cb cap Ac lent]
+24.3 +15.6 58 +27 +27 жарко 1007.5 981.6
21 19.07 СЗ 2 10 км 9/9 660 м
[Cb cap]
+24.3 +15.8 59 +27 +27 жарко 1007.3 981.4
00 20.07 С 2 20 км 8/8 700 м
[Cb cap]
+23.2 +15.1 60 +27 +27 душно 1006.4 980.4
03 20.07 С 4 20 км 6/0
[Ac trans]
+24.4 +15.6 58 +27 +29 жарко 1007.0 981.1 +22.9 0.0
06 20.07 С 5
{11}
20 км 5/0
[Cc]
+27.8 +15.7 48 +31 +37 душно 1006.6 980.9
09 20.07 С 5
{10}
20 км 9/0
[Ac lent Ci]
+31.3 +15.0 37 +33 +39 жарко 1006.2 980.8
12 20.07 СЗ 6-11
{11}
20 км 9/3 600 м
[Cu med, cong Ac lent Ci]
+29.8 +18.0 49 +34 +35 очень
душно
1006.0 980.6
15 20.07 СЗ 4
{11}
20 км 9/3 600 м
[Cb cap Ac trans Ci]
+26.9 +17.0 55 +31 +31 душно 1007.2 981.5 +31.4
18 20.07 С 4 10 км 8/3 600 м
[Cb cap Ac trans Cc]
+24.3 +12.7 48 +26 +26 жарко 1008.4 982.4
21 20.07 З 3 10 км зарница 3/3 600 м
[Cb cap]
+20.1 +13.5 66 +22 +22 комфорт 1008.7 982.3
00 21.07 СЗ 2 20 км 1/1 600 м
[Cb cap]
+17.5 +12.9 74 +18 +18 1010.2 983.5
03 21.07 ЮЗ 1 20 км ясно +22.4 +14.7 62 +26 +30 жарко 1011.0 984.8 +16.9
06 21.07 СЗ 6-10
{10}
20 км 1/0
[Ci fib]
+25.6 +13.8 48 +28 +33 жарко 1011.7 985.7
09 21.07 СЗ 6
{11}
20 км 8/8 630 м
[Cu hum]
+27.5 +9.1 31 +28 +29 жарко 1011.9 986.0
12 21.07 С 3
{12}
20 км 8/8 660 м
[Cu hum]
+27.4 +8.7 31 +27 +29 жарко 1011.8 986.0
15 21.07 СЗ 3
{10}
20 км 3/3 600 м
[Cu hum]
+25.9 +8.6 33 +26 +26 жарко 1012.2 986.2 +28.3

 

Местоположение метеостанции Троицкое Т (Оренбургская область, Россия): широта 52.33 долгота 56.37 высота над уровнем моря 229 м.

В архиве по умолчанию представлена погода в Троицком Т за последнюю неделю. Архивные данные за месяц целиком и за предыдущие месяцы, начиная с января 2011 года, Вы можете получить, выбрав интересующий диапазон дат из раскрывающегося списка и нажав кнопку "Ввод!".


*Определитесь, кто Вы:
робот инопланетянин человек

Внимание! Время в таблицах - всемирное. Для получения местного времени необходимо прибавить поправку, которая равна 5 ч.

Смотрите также архив погоды в соседних городах и на ближайших метеорологических станциях:

Погода в Кумертау (Башкирия, Россия) (62 км)
Погода в Зилаире (Башкирия, Россия) (71 км)
Погода в Шульган-Таше (Башкирия, Россия) (93 км)
Погода в Татарской Каргале (Оренбургская область, Россия) (95 км)
Погода в Беляевке (Оренбургская область, Россия) (101 км)
Погода в Старосубхангулово (Башкирия, Россия) (112 км)
Погода в Оренбурге (Оренбургская область, Россия) (113 км)
Погода в Салавате (Башкирия, Россия) (117 км)
Погода в Кувандыке (Оренбургская область, Россия) (118 км)
Погода в Федоровке (Башкирия, Россия) (122 км)

Пояснения к столбцам:

Ветер - указаны скорость ветра в м/с - средняя за 10 мин, порывы в срок и между сроками (в фигурных скобках) и направление, откуда дует ветер: С - северный, СВ - северо-восточный, В - восточный, ЮВ - юго-восточный, Ю - южный, ЮЗ - юго-западный, З - западный, СЗ - северо-западный.
Видимость - горизонтальная дальность видимости в метрах или километрах. При видимости от 1 до 10 км при отсутствии осадков обычно наблюдается дымка, при ухудшении видимости до 1 км и менее - туман. В сухую погоду видимость может ухудшаться дымом, пылью или мглою.
Явления - указаны атмосферные явления, наблюдавшиеся в срок или в последний час перед сроком; фигурными скобками обозначены явления, наблюдавшиеся между сроками (за 1-3 часа до срока); квадратными скобками обозначены град или гололедные отложения с указанием их диаметра в мм.
Облачность - указаны через наклонную черту общая и нижняя облачность в баллах и высота нижней границы облаков в метрах; квадратными скобками обозначены формы облаков: Ci - перистые, Cs - перисто-слоистые, Cc - перисто-кучевые, Ac - высококучевые, As - высокослоистые, Sc - слоисто-кучевые, Ns - слоисто-дождевые, Cu - кучевые, Cb - кучево-дождевые. Подробнее классификацию облаков см. в Атласе облаков (PDF).
T - Температура воздуха - температура, измеренная на высоте 2 м над землей.
Td - Температура точки росы - температура, при понижении до которой содержащийся в воздухе водяной пар достигнет насыщения.
f - Относительная влажность воздуха - влажноcть воздуха, измеренная на высоте 2 м над землей.
Te - Эффективная температура - температура, которую ощущает одетый по сезону человек в тени. Характеристика душности погоды. При расчете учитывается влияние влажности воздуха и скорости ветра на теплоощущения человека.
Tes - Эффективная температура на солнце - температура, которую ощущает человек, с поправкой на солнечный нагрев. Характеристика знойности погоды. Зависит от высоты солнца над горизонтом, облачности и скорости ветра. Ночью, в пасмурную погоду, а также при ветре 12 м/с и более поправка равна нулю.
P - Атмосферное давление - приведенное к уровню моря атмосферное давление.
Po - Атмосферное давление - измеренное на уровне метеостанции атмосферное давление.
Tmin - Минимальная температура - минимум температуры воздуха на высоте 2 м над землей.
Tmax - Максимальная температура - максимум температуры воздуха на высоте 2 м над землей.
R - Количество осадков - Количество выпавших осадков за период времени, мм. При наведении курсора мыши на число - период времени, за который выпало указанное количество осадков.
R24 - Количество осадков - Количество выпавших осадков за 24 часа, мм.
S - Снежный покров - Высота снежного покрова, см. При наведении курсора мыши на число - состояние снежного покрова и степень покрытия местности в баллах.